Location: Palomar Mountain Lodge
(33.3110°N, 116.8495°W)
Time: 15:14:48
(UTC-08:00)

Daily predictions for brighter satellites

Satellite Brightness Start Highest point End
(mag) Time Altitude Azimuth Time Altitude Azimuth Time Altitude Azimuth
MONITOR-E 4.2 17:57:41 10° SSE 18:00:36 53° ENE 18:03:34 10° N
MOS 1-B Rocket 4.1 17:54:37 10° SSE 18:01:11 66° ENE 18:06:58 10° N
Cosmos 1812 3.5 18:00:33 10° NNE 18:04:01 31° E 18:07:29 10° SE
NOSS 0 Rocket 4.1 17:58:33 10° NNW 18:04:46 83° WSW 18:10:58 10° SSE
Ariane Rocket 4.4 18:00:36 10° S 18:05:27 45° W 18:10:19 10° NNW
ALOS 2.2 18:01:49 10° SSE 18:06:28 83° ENE 18:11:10 10° N
Cosmos 1238 4.3 18:06:29 10° S 18:09:36 79° E 18:13:20 10° N
SKYMED 2 4.5 18:07:00 10° N 18:11:13 54° WNW 18:15:25 10° SSW
Cosmos 44 4.1 18:11:10 10° N 18:15:44 33° NE 18:20:27 10° ESE
CENTAUR R/B 2.4 18:10:34 10° SSW 18:16:18 76° ESE 18:22:51 10° NNE
Cosmos 2082 4.4 18:12:52 10° SSW 18:18:22 59° WNW 18:23:56 10° NNE
Cosmos 2333 Rocket 3.4 18:14:24 10° NW 18:19:47 46° WSW 18:25:07 10° S
CZ-3C R/B 3.5 18:18:22 10° S 18:20:37 14° SE 18:24:30 10° ESE
Aureole 3 4.2 18:15:48 10° S 18:22:12 85° E 18:27:14 10° N
Cosmos 2056 Rocket 4.2 18:18:01 10° NNW 18:23:21 61° WSW 18:28:40 10° S
Meteor 1-25 Rocket 4.1 18:20:35 10° S 18:26:03 69° E 18:31:35 10° NNE
Lacrosse 5 2.1 18:21:47 10° NW 18:26:49 71° SW 18:31:49 10° SSE
Cosmos 1437 Rocket 3.6 18:23:23 10° SSE 18:26:52 29° E 18:30:24 10° NNE
SPOT 3 Rocket 3.5 18:22:44 10° SSE 18:27:54 82° ENE 18:33:07 10° N
Shenzhou-11 Module 3.3 18:26:38 10° WNW 18:29:26 37° SW 18:32:13 10° SE
Cosmos 1452 Rocket 3.6 18:24:26 10° N 18:29:35 54° ENE 18:34:42 10° SSE
Cosmos 158 Rocket 3.9 18:25:51 10° SSW 18:30:46 86° WNW 18:35:38 10° NNE
Cosmos 1048 Rocket 4.0 18:25:48 10° S 18:31:02 60° ESE 18:36:15 10° NNE
GPS 2-05 Rocket1 4.4 18:28:56 10° SSW 18:31:13 18° SSE 18:32:20 15° SE
EO 1 Del DPAF 3.8 18:28:39 10° N 18:32:26 61° WNW 18:36:10 10° SSW
Iridium 4 Rocket 3.4 18:29:39 10° NNE 18:34:13 45° E 18:38:25 10° SSE
Gbstr 26 Del rocket 2.9 18:35:53 10° SSW 18:39:27 45° SE 18:41:22 24° ENE
COSMOS 2455 3.9 18:36:15 10° SSE 18:40:52 23° ESE 18:42:50 20° ENE
Cosmos 1378 Rocket 3.5 18:40:40 10° N 18:45:03 64° E 18:49:26 10° SSE
Tsikada Rocket 4.2 18:41:20 10° SSE 18:47:25 48° E 18:53:32 10° NNE
Cosmos 1782 Rocket 3.6 18:43:43 10° S 18:48:03 56° E 18:52:22 10° NNE
Sich 1 Rocket 3.5 18:45:13 10° S 18:49:44 82° E 18:54:13 10° N
Cosmos 1420 Rocket 3.9 18:44:51 10° NNW 18:50:07 69° ENE 18:55:23 10° SSE
FengYun 1-2 T 4.2 18:51:27 10° SSE 18:56:58 83° WSW 19:02:29 10° NNW
BREEZE-M DEB (TANK) 2.7 18:57:16 10° SW 18:59:53 77° SE 19:03:04 22° NE
OAO 2 Rocket 3.2 18:56:29 10° W 19:01:26 81° N 19:03:24 37° ENE
Okean 2 Rocket 3.1 19:01:34 10° S 19:05:48 52° E 19:10:04 10° NNE
Cosmos 1464 Rocket 4.1 19:01:41 10° N 19:07:47 75° W 19:13:52 10° S
SJ-6B 2.5 19:04:29 10° SSE 19:08:12 80° ENE 19:12:01 10° N
FREGAT/IRIS 3.8 19:05:34 10° S 19:08:21 41° W 19:11:11 10° NNW
Tiangong 2 1.2 19:07:27 10° WNW 19:10:20 71° NW 19:10:20 71° NW
SeaSat 1 2.5 19:12:42 44° ESE 19:13:44 52° ENE 19:18:30 10° NNW
ARGOS Delta rocket 3.7 19:10:19 10° N 19:15:07 87° W 19:19:39 10° SSW
HJ-1C 3.9 19:12:51 10° S 19:16:13 59° W 19:19:35 10° NNW
Envisat 2.8 19:12:16 10° SSE 19:17:17 70° ENE 19:22:20 10° N
Thor Agena Rocket 3.9 19:18:45 10° N 19:23:46 64° WNW 19:28:43 10° SSW
Cosmos 44 Rocket 3.5 19:21:33 10° NNW 19:26:37 73° WSW 19:29:03 31° SSE
Okean 1 4.1 19:23:19 10° NNW 19:27:11 51° W 19:31:01 10° S
ERS-2 4.2 19:25:54 10° SSW 19:29:04 27° W 19:32:15 10° NW
SL-16 R/B 2.9 19:23:49 10° NNW 19:29:18 53° WSW 19:34:45 10° S
USA 215 4.0 19:24:42 12° NNE 19:30:27 49° NW 19:36:41 10° WSW
Sakura Rocket 4.3 19:27:09 10° WSW 19:33:01 60° S 19:34:53 47° SE
CZ-2D R/B 4.0 19:33:14 34° SSW 19:34:36 53° W 19:38:25 10° NNW
Cosmos 494 Rocket 3.8 19:29:25 10° SSW 19:34:37 87° ESE 19:36:01 50° NNE
Meteor 1-13 Rocket 4.0 19:29:48 10° N 19:35:18 69° E 19:35:22 69° E
Cosmos 921 Rocket 3.4 19:32:02 10° NNW 19:36:29 64° WSW 19:37:34 47° SSW
Cosmos 1603 4.1 19:42:18 10° NNW 19:46:32 49° N 19:46:32 49° N
Resurs 01 Rocket 3.6 19:57:45 21° NNW 19:57:45 21° NNW 19:59:18 10° NNW
Cosmos 1634 Rocket 4.4 19:50:28 10° N 19:54:52 49° N 19:54:52 49° N
USA 267 4.3 20:01:52 30° NNE 20:01:52 30° NNE 20:06:17 10° NNW
Cosmos 2263 Rocket 3.5 19:58:22 10° SSW 20:00:56 29° SSW 20:00:56 29° SSW
CZ-4C R/B 4.0 20:03:56 10° NNW 20:08:04 29° NNE 20:08:04 29° NNE
COSMOS 2455 3.8 20:20:44 10° SW 20:26:08 44° WNW 20:26:08 44° WNW
